TimeCST,TemperatureF,Dew PointF,Humidity,Sea Level PressureIn,VisibilityMPH,Wind Direction,Wind SpeedMPH,Gust SpeedMPH,PrecipitationIn,Events,Conditions,WindDirDegrees,DateUTC
12:15 AM,24.8,23.0,93,30.24,10.0,NNE,10.4,-,N/A,,Overcast,30,2014-02-10 06:15:00
12:35 AM,24.8,23.0,93,30.25,10.0,NNE,10.4,-,N/A,,Overcast,20,2014-02-10 06:35:00
12:55 AM,24.8,21.2,86,30.24,10.0,NNE,12.7,-,N/A,,Overcast,30,2014-02-10 06:55:00
1:15 AM,24.8,21.2,86,30.25,10.0,NNE,12.7,-,N/A,,Overcast,20,2014-02-10 07:15:00
1:35 AM,24.8,19.4,80,30.26,10.0,NNE,12.7,-,N/A,,Overcast,20,2014-02-10 07:35:00
1:55 AM,24.8,19.4,80,30.26,10.0,North,15.0,-,N/A,,Overcast,10,2014-02-10 07:55:00
2:15 AM,24.8,19.4,80,30.26,10.0,NNE,13.8,-,N/A,,Overcast,20,2014-02-10 08:15:00
2:35 AM,23.0,19.4,86,30.27,10.0,NNE,12.7,-,N/A,,Mostly Cloudy,20,2014-02-10 08:35:00
2:55 AM,23.0,19.4,86,30.25,10.0,NNE,10.4,-,N/A,,Overcast,20,2014-02-10 08:55:00
3:15 AM,23.0,19.4,86,30.26,10.0,NNE,12.7,-,N/A,,Overcast,20,2014-02-10 09:15:00
3:35 AM,21.2,19.4,93,30.26,10.0,NNE,12.7,-,N/A,,Mostly Cloudy,20,2014-02-10 09:35:00
3:55 AM,21.2,19.4,93,30.27,9.0,NNE,13.8,-,N/A,,Overcast,20,2014-02-10 09:55:00
4:15 AM,21.2,19.4,93,30.27,10.0,NNE,12.7,-,N/A,,Overcast,20,2014-02-10 10:15:00
4:35 AM,21.2,19.4,93,30.28,10.0,NNE,13.8,-,N/A,,Overcast,20,2014-02-10 10:35:00
4:55 AM,21.2,17.6,86,30.30,10.0,North,12.7,-,N/A,,Scattered Clouds,10,2014-02-10 10:55:00
5:15 AM,21.2,17.6,86,30.28,10.0,NNE,13.8,-,N/A,,Partly Cloudy,30,2014-02-10 11:15:00
5:35 AM,21.2,17.6,86,30.30,10.0,North,13.8,-,N/A,,Scattered Clouds,10,2014-02-10 11:35:00
5:55 AM,19.4,15.8,86,30.33,10.0,North,13.8,-,N/A,,Scattered Clouds,10,2014-02-10 11:55:00
6:15 AM,19.4,15.8,86,30.31,10.0,NNE,15.0,-,N/A,,Partly Cloudy,20,2014-02-10 12:15:00
6:35 AM,19.4,15.8,86,30.33,10.0,North,13.8,-,N/A,,Clear,10,2014-02-10 12:35:00
6:55 AM,19.4,15.8,86,30.33,10.0,NNE,13.8,-,N/A,,Clear,20,2014-02-10 12:55:00
7:15 AM,19.4,14.0,80,30.35,10.0,NNE,15.0,-,N/A,,Partly Cloudy,30,2014-02-10 13:15:00
7:35 AM,19.4,14.0,80,30.34,10.0,North,16.1,-,N/A,,Scattered Clouds,10,2014-02-10 13:35:00
7:55 AM,19.4,12.2,74,30.35,10.0,NNE,13.8,-,N/A,,Partly Cloudy,20,2014-02-10 13:55:00
8:15 AM,19.4,14.0,80,30.37,10.0,North,17.3,-,N/A,,Partly Cloudy,10,2014-02-10 14:15:00
8:35 AM,19.4,12.2,74,30.37,10.0,NNE,12.7,-,N/A,,Scattered Clouds,20,2014-02-10 14:35:00
8:55 AM,19.4,12.2,74,30.37,10.0,NNE,15.0,-,N/A,,Scattered Clouds,20,2014-02-10 14:55:00
9:15 AM,19.4,12.2,74,30.38,10.0,NNE,15.0,-,N/A,,Partly Cloudy,20,2014-02-10 15:15:00
9:35 AM,19.4,12.2,74,30.39,10.0,North,16.1,-,N/A,,Clear,360,2014-02-10 15:35:00
9:55 AM,17.6,15.8,93,30.38,2.5,NNE,13.8,-,N/A,,Mostly Cloudy,30,2014-02-10 15:55:00
10:15 AM,17.6,15.8,93,30.39,2.5,North,12.7,-,N/A,,Overcast,10,2014-02-10 16:15:00
10:35 AM,19.4,15.8,86,30.39,4.0,NNE,12.7,-,N/A,,Overcast,30,2014-02-10 16:35:00
10:55 AM,19.4,15.8,86,30.38,10.0,NNE,13.8,-,N/A,,Scattered Clouds,30,2014-02-10 16:55:00
11:15 AM,21.2,15.8,80,30.37,10.0,NNE,15.0,-,N/A,,Partly Cloudy,20,2014-02-10 17:15:00
11:35 AM,21.2,15.8,80,30.36,10.0,NNE,12.7,-,N/A,,Clear,30,2014-02-10 17:35:00
11:55 AM,21.2,15.8,80,30.36,10.0,NNE,12.7,-,N/A,,Partly Cloudy,20,2014-02-10 17:55:00
12:15 PM,21.2,17.6,86,30.35,10.0,NNE,10.4,-,N/A,,Partly Cloudy,20,2014-02-10 18:15:00
12:35 PM,21.2,15.8,80,30.35,10.0,NNE,11.5,-,N/A,,Partly Cloudy,20,2014-02-10 18:35:00
12:55 PM,21.2,15.8,80,30.34,10.0,North,13.8,-,N/A,,Partly Cloudy,10,2014-02-10 18:55:00
1:15 PM,23.0,14.0,68,30.33,10.0,NNE,11.5,-,N/A,,Partly Cloudy,20,2014-02-10 19:15:00
1:35 PM,24.8,15.8,69,30.32,10.0,North,15.0,-,N/A,,Partly Cloudy,10,2014-02-10 19:35:00
1:55 PM,21.2,12.2,68,30.32,10.0,North,11.5,-,N/A,,Partly Cloudy,10,2014-02-10 19:55:00
2:15 PM,23.0,14.0,68,30.32,10.0,North,11.5,-,N/A,,Partly Cloudy,10,2014-02-10 20:15:00
2:35 PM,21.2,14.0,74,30.34,10.0,North,11.5,-,N/A,,Partly Cloudy,360,2014-02-10 20:35:00
2:55 PM,23.0,12.2,63,30.33,10.0,North,10.4,-,N/A,,Partly Cloudy,10,2014-02-10 20:55:00
3:15 PM,21.2,12.2,68,30.33,10.0,NNE,15.0,-,N/A,,Clear,20,2014-02-10 21:15:00
3:35 PM,21.2,12.2,68,30.35,10.0,NNE,13.8,-,N/A,,Clear,30,2014-02-10 21:35:00
3:55 PM,21.2,12.2,68,30.35,10.0,North,13.8,-,N/A,,Clear,10,2014-02-10 21:55:00
4:15 PM,21.2,12.2,68,30.34,10.0,NNE,12.7,-,N/A,,Clear,20,2014-02-10 22:15:00
4:35 PM,21.2,12.2,68,30.34,10.0,NNE,11.5,-,N/A,,Clear,30,2014-02-10 22:35:00
4:55 PM,21.2,12.2,68,30.33,10.0,NNE,13.8,-,N/A,,Clear,30,2014-02-10 22:55:00
5:15 PM,21.2,12.2,68,30.34,10.0,NNE,11.5,-,N/A,,Clear,20,2014-02-10 23:15:00
5:35 PM,21.2,12.2,68,30.33,10.0,NNE,12.7,-,N/A,,Clear,30,2014-02-10 23:35:00
5:55 PM,21.2,12.2,68,30.36,10.0,NNE,11.5,-,N/A,,Clear,30,2014-02-10 23:55:00
6:15 PM,21.2,12.2,68,30.37,10.0,NNE,10.4,-,N/A,,Clear,30,2014-02-11 00:15:00
6:35 PM,21.2,12.2,68,30.38,10.0,NNE,11.5,-,N/A,,Clear,30,2014-02-11 00:35:00
6:55 PM,19.4,12.2,74,30.37,10.0,NNE,11.5,-,N/A,,Clear,30,2014-02-11 00:55:00
7:15 PM,19.4,10.4,68,30.36,10.0,NNE,13.8,-,N/A,,Clear,30,2014-02-11 01:15:00
7:35 PM,19.4,10.4,68,30.37,10.0,NNE,16.1,-,N/A,,Clear,20,2014-02-11 01:35:00
7:55 PM,19.4,10.4,68,30.37,10.0,NNE,16.1,-,N/A,,Clear,30,2014-02-11 01:55:00
8:15 PM,17.6,10.4,73,30.38,10.0,NNE,15.0,-,N/A,,Clear,20,2014-02-11 02:15:00
8:35 PM,17.6,8.6,68,30.38,10.0,NNE,12.7,-,N/A,,Clear,30,2014-02-11 02:35:00
8:55 PM,17.6,8.6,68,30.39,10.0,NNE,15.0,-,N/A,,Clear,30,2014-02-11 02:55:00
9:15 PM,15.8,8.6,73,30.39,10.0,NNE,12.7,-,N/A,,Clear,30,2014-02-11 03:15:00
9:35 PM,15.8,8.6,73,30.39,10.0,NE,10.4,-,N/A,,Clear,40,2014-02-11 03:35:00
9:55 PM,15.8,8.6,73,30.40,10.0,NNE,11.5,-,N/A,,Clear,20,2014-02-11 03:55:00
10:15 PM,14.0,6.8,73,30.40,10.0,NNE,11.5,-,N/A,,Clear,20,2014-02-11 04:15:00
10:35 PM,14.0,6.8,73,30.39,10.0,NNE,13.8,-,N/A,,Clear,20,2014-02-11 04:35:00
10:55 PM,14.0,6.8,73,30.39,10.0,NNE,11.5,-,N/A,,Clear,20,2014-02-11 04:55:00
11:15 PM,12.2,6.8,79,30.39,10.0,NNE,13.8,-,N/A,,Clear,30,2014-02-11 05:15:00
11:35 PM,12.2,3.2,67,30.38,10.0,NNE,15.0,-,N/A,,Clear,30,2014-02-11 05:35:00
11:55 PM,12.2,5.0,73,30.38,10.0,NNE,11.5,-,N/A,,Clear,20,2014-02-11 05:55:00